Find Starlink 34408

NORAD ID: 64363 Int'l Des: 2025-126 Owner: SPXS Country: US Constellation: starlink operational
LEOCIRCULAR

現在のビュー

3D地球を読み込み中...

Starlink 34408について

説明を読み込み中...

次回通過

Passes for default location (London). Set your location on the main map for personalized predictions.

高度履歴

Loading altitude history...

軌道要素

1 64363U 25126V 26159.40020296 .00013457 00000-0 11338-2 0 9992
2 64363 70.0000 165.5719 0004068 258.8977 101.1725 14.98315971 54272
Epoch: Jun 8, 2026 • Age: 13 hours

現在のステータス

高度 586.1 km
速度 7.57 km/s
衛星直下点 68.74°N, 6.47°W
打ち上げ日 Jun 13, 2025
運用期間 0.9 years
タイプ internet

技術仕様

分類 Payload
質量 575.00 kg
乾燥質量 530.00 kg
総質量 575.00 kg
長さ 0.30 m
直径 4.10 m
スパン 29.00 m
形状 Box + pan
製造者 SPXS
バスタイプ Starlink V2MO
フェーズステータス In Orbit
所有者/国 SPXS/US

Most Searched